RH
9 10 11 11 12 13 14 14 15 15 16 17 17 17 19 18 18 20 21 21 22 21 19 18 17 18 20 21 21 21 21 21 21 23 25 26 30 37 42 44 48 52 53 56 58 62 64 62 61 60 59 58 59 60 61 62 60 54 47 42 34 23 11 4 2 2 2 5 11 16 19 19 20 20 15 9 8 11 12 8 5 5 5 5 5 6
10 11 11 12 13 14 15 15 16 16 17 17 18 18 19 20 20 20 22 23 25 24 21 20 19 19 22 23 22 22 22 22 23 26 28 29 33 39 42 43 47 49 52 54 57 60 61 60 60 60 60 60 61 62 64 64 63 57 51 46 37 23 11 4 2 2 2 8 15 19 21 21 22 24 22 16 11 11 14 12 6 4 5 5 5 6
11 11 12 13 14 14 16 16 16 17 18 18 19 20 20 21 22 22 23 24 27 27 23 21 21 20 22 23 23 23 22 23 26 27 30 31 35 40 40 42 45 46 50 52 56 59 59 58 60 61 62 62 62 64 67 68 66 60 54 50 40 24 11 4 2 2 3 11 18 21 23 24 25 27 28 26 19 13 14 16 10 5 5 5 5 5
11 12 13 13 14 15 16 17 18 18 19 20 20 21 22 23 25 25 24 25 26 28 25 24 25 22 21 23 24 25 25 26 28 29 31 33 37 39 38 40 43 44 49 52 55 59 59 57 59 61 63 63 65 67 70 71 68 62 58 53 41 24 11 4 2 2 6 14 20 23 25 26 27 29 30 32 30 21 16 18 15 6 5 6 5 6
12 12 13 14 15 16 17 18 19 20 20 21 21 22 24 25 27 28 27 26 25 25 26 27 29 23 20 25 25 25 27 27 29 30 32 35 37 36 35 38 42 45 50 53 55 59 59 58 58 61 64 64 67 70 73 74 70 65 62 55 42 25 10 4 2 2 8 17 22 24 26 28 29 30 32 34 37 33 24 23 20 9 5 6 5 6
15 13 13 14 15 16 17 19 20 22 22 22 22 24 26 27 28 29 29 28 25 26 26 29 37 31 21 24 27 26 27 28 30 30 32 36 35 33 33 37 43 47 51 54 56 58 59 58 59 61 63 65 69 72 75 76 72 68 65 58 43 25 11 4 1 3 11 19 22 24 26 28 29 30 32 34 38 42 37 32 25 11 5 7 6 6
15 14 14 14 16 16 18 19 21 23 23 23 23 24 27 28 29 29 29 29 27 28 27 30 41 39 24 22 27 27 27 29 30 30 32 34 33 33 35 38 43 49 53 55 56 58 59 58 59 60 62 65 69 73 76 76 74 71 67 60 45 26 11 4 1 4 13 20 22 23 24 26 29 30 32 35 40 44 43 38 28 13 5 7 8 7
14 14 14 16 16 16 18 20 21 23 24 24 24 25 27 27 29 29 28 29 28 28 29 29 35 40 31 23 26 28 28 29 29 29 30 31 33 34 37 40 43 48 52 54 55 56 58 58 58 59 60 64 68 72 75 76 74 72 70 64 48 28 12 4 1 5 15 21 21 21 23 26 29 31 33 37 41 44 44 37 23 11 7 8 10 10
14 14 15 17 17 18 19 20 21 23 24 24 24 26 28 28 29 29 28 29 29 31 31 28 31 42 38 25 25 29 28 29 29 27 29 30 33 35 37 40 43 46 49 51 52 53 55 56 55 56 59 62 66 70 73 75 76 74 73 66 50 30 14 4 2 7 16 21 19 19 22 26 29 32 35 38 41 43 40 30 16 8 7 8 11 13
15 15 15 17 18 19 19 20 22 23 25 26 26 27 27 29 28 27 30 29 30 35 33 29 32 42 41 26 24 30 29 29 29 26 29 30 33 36 37 40 41 44 46 48 49 51 53 53 52 54 57 60 64 68 72 75 77 76 74 68 52 33 16 5 2 8 17 19 17 18 23 27 29 31 35 37 39 39 30 19 10 7 8 10 11 14
16 15 16 17 19 21 20 22 23 24 27 27 27 28 27 29 28 29 32 28 34 43 35 29 32 40 45 30 23 30 29 29 29 27 29 31 34 37 37 38 40 40 43 45 45 48 50 50 50 51 54 59 62 66 71 74 77 76 74 69 55 37 20 6 2 9 17 17 15 19 24 26 28 29 31 33 33 29 20 12 9 9 10 12 13 15
18 16 16 17 20 22 22 23 24 25 28 28 29 31 28 29 27 29 31 27 41 52 37 31 34 40 47 33 22 29 30 29 31 30 31 32 34 36 35 36 37 38 41 42 43 46 48 48 48 50 53 57 61 65 70 74 76 76 75 70 57 42 24 6 2 10 17 15 15 20 24 24 25 26 26 27 25 20 14 11 10 11 13 15 16 18
17 16 17 19 22 23 23 24 26 26 28 30 32 31 32 40 41 45 49 40 45 49 34 33 40 41 40 27 21 29 29 29 32 33 33 33 33 33 32 34 35 36 39 41 43 44 45 46 46 49 53 57 61 65 70 73 75 74 74 71 60 47 29 8 2 11 16 14 16 20 22 21 21 21 20 21 18 14 12 12 12 14 16 17 19 20
17 18 19 22 23 23 23 25 26 28 29 31 33 32 35 47 56 67 70 54 47 44 33 37 45 41 33 24 23 27 27 29 32 34 36 34 33 32 30 34 35 37 39 40 42 43 44 45 45 48 52 57 61 64 68 72 73 72 73 71 63 51 34 11 2 11 16 14 16 20 19 17 17 16 16 16 14 12 12 13 15 16 17 19 20 21
20 20 19 21 22 22 23 25 26 28 30 31 34 34 34 39 45 56 61 51 46 47 41 41 43 37 29 24 25 26 26 29 32 35 38 36 34 32 30 35 37 37 39 39 40 42 44 44 46 48 51 56 60 63 66 69 69 70 71 70 65 55 38 15 3 10 15 14 16 18 16 15 14 14 14 14 13 13 14 15 16 17 18 19 19 21
20 19 19 20 21 22 23 25 26 28 30 32 33 35 36 37 37 43 48 42 43 57 59 48 37 29 26 25 25 25 25 28 32 36 39 39 36 34 33 36 38 37 37 38 40 42 44 45 47 48 50 54 58 62 64 65 66 67 67 67 65 58 43 19 4 9 15 14 16 16 14 14 14 15 15 15 17 17 17 18 18 19 19 19 21 25
20 19 19 20 20 21 24 26 27 29 31 32 34 36 37 38 39 40 43 41 48 66 63 43 34 30 28 27 25 25 26 28 34 37 39 40 38 38 38 37 39 38 36 37 40 42 45 47 48 48 48 52 56 60 62 62 63 63 63 65 65 60 49 25 6 8 15 14 16 15 14 15 15 17 19 20 22 23 24 25 25 26 27 27 31 36
22 20 19 20 21 22 24 26 28 28 30 32 35 37 37 39 41 41 46 53 65 76 63 42 38 36 34 32 25 24 27 29 34 38 39 40 40 42 41 37 38 38 36 37 39 41 45 47 48 48 48 50 53 57 60 61 61 61 60 63 65 62 54 31 8 7 15 15 15 15 14 16 18 19 22 24 26 27 27 29 30 31 33 35 38 39
23 23 20 20 22 24 25 27 28 27 29 32 34 37 38 40 43 43 48 56 65 77 70 51 43 39 35 32 24 23 27 30 34 38 40 40 40 44 42 37 37 38 36 36 37 39 43 47 49 48 48 49 51 54 58 60 60 59 58 61 64 63 57 38 11 6 15 15 15 16 14 17 19 20 23 24 25 26 25 27 28 29 31 33 35 37
24 26 24 21 22 24 25 26 28 27 29 32 34 38 39 41 44 45 48 50 56 72 77 66 57 43 29 24 23 25 28 31 35 39 41 39 39 44 43 37 36 36 35 35 36 38 41 45 48 49 49 49 50 53 57 59 60 59 59 60 63 63 60 44 17 6 14 16 14 16 16 17 19 19 22 24 24 24 24 24 25 26 29 31 34 38
25 27 27 24 23 25 25 26 27 28 30 31 33 37 39 41 43 44 46 46 50 66 78 81 73 44 20 20 25 26 29 33 38 41 41 39 40 43 42 38 36 36 35 35 38 39 39 41 45 48 51 51 51 52 54 58 60 60 59 59 61 62 62 50 23 7 12 16 15 16 17 18 18 18 22 24 23 24 24 25 27 28 31 34 38 42
26 27 28 25 23 23 24 26 27 29 30 30 32 36 38 41 43 48 55 50 46 53 61 74 75 43 17 21 26 27 32 36 40 43 41 40 42 42 41 40 41 41 40 40 41 41 39 38 42 47 52 54 54 54 54 57 60 61 61 60 60 60 61 55 31 10 10 15 15 16 18 19 18 18 22 24 24 25 26 27 29 32 34 37 42 46
26 28 29 26 24 25 25 26 26 27 29 31 34 34 37 42 41 46 57 51 47 53 50 61 75 47 18 22 27 29 35 38 42 44 42 41 44 47 49 51 53 54 53 50 48 47 46 45 47 51 54 56 58 57 56 57 60 63 63 61 60 59 60 59 40 15 8 14 15 16 19 19 18 19 22 24 25 26 28 29 31 33 36 39 43 45
28 30 31 28 26 24 23 23 24 28 31 32 33 33 35 41 40 42 49 46 48 54 50 62 76 46 17 23 30 31 38 42 44 45 47 51 55 59 62 63 66 68 66 65 63 63 66 66 66 67 66 65 64 62 60 60 61 64 65 64 62 60 59 61 50 24 8 12 16 15 18 20 18 19 22 24 27 28 29 30 32 35 37 39 42 43
29 31 32 34 34 33 31 29 27 29 33 32 30 31 33 39 43 43 46 48 52 51 49 63 69 41 22 29 33 34 41 43 46 51 57 64 65 66 67 66 70 74 73 73 76 78 82 83 84 85 84 80 76 71 67 66 65 66 67 67 65 62 60 60 57 37 13 10 16 16 18 20 18 19 22 25 27 29 30 31 33 34 36 38 39 41
30 30 30 33 39 42 42 37 31 29 33 32 30 32 34 39 45 45 46 53 55 51 49 57 54 36 28 34 34 37 46 51 52 54 58 62 65 68 67 63 67 72 72 73 77 82 86 88 90 92 93 91 88 84 79 74 72 71 71 72 70 66 62 60 60 48 22 9 14 17 17 20 20 19 22 25 27 29 30 31 32 33 34 36 36 37
31 30 28 30 33 34 32 30 30 32 35 35 33 34 37 41 46 48 52 53 50 50 53 48 43 41 38 35 35 41 53 61 60 57 57 58 61 65 65 62 65 70 71 71 76 83 86 87 90 91 92 93 93 93 90 85 81 79 77 78 77 73 68 62 60 55 34 13 11 17 18 19 21 20 21 25 27 28 30 30 31 32 32 33 33 33
32 30 29 31 30 29 28 29 32 35 36 35 34 34 37 40 45 49 50 45 42 52 54 41 39 48 43 33 38 48 56 60 58 58 59 58 58 63 64 62 64 68 70 72 74 77 80 85 89 88 88 90 92 95 95 92 90 88 85 83 83 81 75 67 62 60 46 22 11 15 18 19 22 21 21 25 27 28 30 30 29 30 29 30 31 32
32 32 30 31 31 29 28 30 33 36 36 34 33 33 35 38 41 44 42 39 44 54 51 39 41 48 41 36 44 53 55 55 55 57 59 58 58 59 58 57 58 62 67 70 71 72 76 84 90 90 88 88 90 93 95 95 94 92 90 89 88 86 83 75 67 63 56 34 14 13 18 19 22 22 21 23 27 27 28 28 27 27 27 28 31 33
34 35 33 35 35 29 28 31 34 35 35 32 29 30 34 37 38 39 37 38 47 51 44 41 47 45 39 42 50 53 54 55 56 55 52 48 46 45 44 44 44 48 55 61 67 73 79 84 89 91 90 89 89 91 92 93 94 95 94 93 92 91 89 83 74 67 63 48 23 12 16 20 21 23 22 23 25 26 26 26 24 24 26 29 31 34
35 35 34 37 37 30 29 32 33 34 35 32 28 30 34 37 37 38 38 40 46 48 44 46 50 45 42 49 54 55 55 54 52 48 43 39 40 42 44 44 44 46 51 56 61 67 73 81 87 90 89 88 87 88 87 88 91 94 95 95 94 94 93 89 82 72 67 59 37 16 13 20 22 23 23 23 24 25 25 23 23 24 27 29 31 36
34 36 36 39 42 37 32 33 35 35 35 31 29 33 35 36 38 40 40 41 44 45 44 46 48 48 50 55 56 54 53 52 52 48 42 38 38 41 43 42 42 44 50 58 63 64 65 70 76 80 84 86 85 84 83 84 86 89 93 95 96 97 96 94 89 80 72 67 52 26 12 17 23 23 24 24 23 24 24 22 22 25 27 29 32 39
34 37 37 43 49 41 33 37 38 36 38 37 33 34 37 38 40 41 41 42 42 43 45 48 51 54 55 54 54 51 49 49 47 37 28 24 24 28 29 25 20 19 22 32 43 51 55 58 61 63 69 76 81 81 80 81 81 83 87 92 95 97 99 98 95 88 79 73 64 41 17 14 22 24 24 24 23 22 22 22 22 25 28 29 32 40
34 38 41 48 52 43 36 38 38 40 46 43 34 36 41 41 41 43 42 40 39 44 51 54 55 55 54 52 50 44 35 30 24 16 14 16 18 21 20 14 10 8 7 9 14 22 31 40 47 52 56 62 70 74 76 79 80 80 82 87 92 96 99 100 99 95 87 79 73 56 29 13 18 24 24 24 24 22 21 22 23 25 27 28 32 40
35 39 44 48 51 47 41 40 44 48 44 34 33 41 43 41 43 46 43 38 42 51 56 57 56 54 49 42 33 23 15 12 13 14 18 21 20 16 13 11 9 7 7 7 6 7 11 17 26 38 48 56 61 65 70 75 79 81 81 83 88 93 97 101 101 99 95 86 78 69 44 18 13 23 26 25 25 24 21 21 23 25 27 29 31 38
34 38 42 47 49 48 45 46 49 47 36 30 37 42 41 42 46 48 44 40 44 52 56 56 54 44 32 20 12 11 13 15 20 24 24 23 21 15 11 10 9 8 8 8 8 7 8 8 11 19 32 44 54 62 67 72 78 82 82 82 84 87 93 99 101 100 99 94 85 77 60 30 12 17 27 27 26 26 24 22 23 25 27 29 30 36
34 36 40 46 48 49 52 53 47 42 37 35 38 41 44 47 49 51 51 45 45 54 58 52 39 22 12 10 9 13 18 22 28 32 28 24 21 15 12 11 10 10 10 9 9 8 9 9 8 11 18 28 44 60 69 74 78 81 83 84 84 84 88 95 100 101 100 99 92 83 71 45 17 12 23 29 28 27 27 24 23 24 27 28 30 34
35 36 39 47 50 52 57 59 57 57 49 38 39 46 49 51 52 54 54 49 50 55 48 32 19 10 9 12 13 15 19 22 27 30 28 25 22 17 14 13 11 11 10 10 11 9 9 10 9 10 14 21 39 63 76 78 80 84 87 88 87 88 87 90 98 102 100 100 99 90 79 59 30 11 15 27 30 29 29 28 24 24 26 28 29 32
36 38 41 48 51 54 61 64 64 61 48 38 45 51 52 55 53 48 51 54 50 41 26 15 13 13 12 13 14 15 17 17 21 25 27 26 23 18 15 13 11 11 10 10 11 10 10 11 10 11 14 22 39 64 79 83 84 87 92 94 94 93 91 91 96 101 100 100 101 97 87 70 45 18 10 21 32 32 31 31 28 25 25 27 29 31
38 40 43 47 48 52 63 67 61 52 44 44 51 54 55 54 45 43 57 56 35 20 16 15 15 13 12 14 15 16 18 18 20 24 25 24 21 17 14 12 11 10 10 10 11 11 11 11 12 12 15 23 39 61 80 91 92 91 95 99 99 98 96 97 98 98 99 100 101 101 95 80 56 29 10 12 27 35 34 32 32 29 25 26 29 31
40 42 44 48 48 49 58 66 62 51 45 49 54 55 52 43 34 44 58 45 21 13 15 15 14 14 15 17 17 18 21 21 20 21 20 19 17 13 10 10 10 10 10 10 10 10 11 11 12 14 18 27 45 69 90 100 99 97 99 101 101 100 99 101 102 98 98 100 101 101 100 90 67 41 17 7 16 30 37 35 34 34 30 27 28 31
43 45 46 49 51 52 57 64 61 52 49 54 55 48 38 35 40 46 40 25 15 15 14 13 16 18 18 20 21 21 20 19 17 17 16 14 12 11 11 11 11 11 11 12 12 13 13 12 12 16 20 32 55 82 98 101 100 100 101 100 101 101 100 101 104 101 98 101 101 100 101 97 80 53 26 9 7 20 35 39 37 36 36 32 29 30
45 48 50 52 55 56 59 62 60 56 55 52 44 32 27 35 42 36 22 15 16 16 16 19 21 20 20 21 19 18 16 14 13 12 12 12 12 12 12 12 13 15 15 16 17 17 17 17 16 18 23 33 58 86 99 99 99 100 100 100 101 101 100 100 103 103 100 101 101 100 100 101 91 66 37 16 7 11 26 39 41 39 38 37 34 32
50 53 55 56 58 61 61 60 58 55 47 35 26 23 23 26 26 20 15 16 18 17 19 21 19 18 19 17 15 14 13 13 15 15 15 15 13 12 13 15 18 19 18 18 19 19 20 20 19 21 23 30 54 86 102 100 97 97 99 100 100 99 99 100 101 101 101 100 101 101 100 101 98 80 49 24 11 7 15 32 42 43 41 41 40 37
53 57 60 60 62 65 62 53 46 38 29 20 17 17 16 16 16 16 17 18 18 18 18 17 15 15 14 13 14 15 15 18 21 20 18 15 13 14 17 19 20 20 19 19 20 21 23 23 23 24 23 23 41 72 89 90 89 91 92 95 99 100 99 99 100 101 100 100 101 101 100 100 101 90 62 33 17 10 10 21 36 44 45 44 44 43
58 63 64 60 58 56 47 36 27 22 21 22 20 17 15 16 16 16 16 16 15 15 14 14 15 14 13 15 19 21 22 25 26 24 19 16 15 17 19 19 20 21 22 21 20 21 24 26 27 27 24 22 30 43 52 57 63 67 71 79 91 100 101 99 99 99 99 100 101 101 101 100 101 97 77 46 25 16 11 14 26 39 47 48 46 47
60 61 57 48 42 35 28 23 21 21 24 26 22 18 17 17 15 15 15 15 13 13 13 14 15 16 16 21 27 31 32 31 31 29 25 20 18 19 19 19 19 20 22 23 22 22 25 27 30 31 28 25 27 30 33 41 49 54 57 65 76 89 99 102 99 98 99 100 100 101 102 100 100 100 89 62 36 21 15 13 17 28 42 51 51 50
50 47 40 33 29 27 26 26 26 26 28 24 18 17 17 15 14 15 14 14 14 15 15 15 16 20 24 29 35 38 37 33 32 32 28 23 22 22 21 22 23 23 26 28 28 27 28 30 32 34 32 30 31 32 31 37 47 53 57 60 63 70 83 96 100 99 98 98 99 101 101 101 101 101 97 79 51 29 20 17 14 18 32 47 54 54
44 38 31 27 28 30 31 29 27 28 29 22 16 17 17 16 16 15 14 15 16 17 18 18 18 22 29 35 37 37 35 33 31 30 27 23 21 22 23 27 30 31 33 36 38 39 39 40 40 40 39 37 39 41 37 37 45 52 54 57 59 58 66 84 96 98 97 96 97 99 101 101 100 101 101 93 69 42 26 21 17 15 22 36 50 56
41 34 27 25 27 27 26 22 21 22 22 18 16 17 17 17 17 15 15 16 16 17 20 21 18 20 24 29 32 33 32 30 28 26 25 22 22 23 26 30 35 40 44 48 51 52 51 50 51 51 48 44 44 46 44 43 49 54 52 54 57 57 67 86 95 93 94 99 99 98 99 100 100 100 102 100 84 57 34 24 21 17 17 26 40 52
32 27 24 22 22 21 19 17 17 18 17 16 16 16 16 16 16 14 15 16 16 17 20 23 23 24 24 25 27 28 27 26 24 23 22 21 21 22 26 30 37 46 51 54 59 64 64 62 63 64 62 56 52 51 51 50 53 53 51 53 58 59 68 86 96 92 94 101 102 100 100 100 99 100 101 101 94 73 46 30 25 21 17 20 29 42
Wind_Speed
5 5 5 6 8 9 8 8 9 10 11 12 14 15 17 20 20 20 21 19 16 17 18 17 21 25 24 23 23 23 19 15 15 17 18 19 23 27 27 26 26 27 28 30 33 36 38 40 41 43 45 46 47 48 49 51 52 54 55 56 58 58 60 60 61 61 58 53 49 48 48 47 45 43 39 37 37 37 37 36 35 36 34 32 32 35
5 5 6 7 8 8 8 8 9 11 13 13 15 16 18 19 22 23 21 19 18 20 19 16 20 23 22 21 22 21 17 14 15 16 18 20 23 26 26 26 27 27 29 30 33 36 39 41 42 43 45 46 47 48 49 51 53 54 55 56 57 58 59 60 60 60 56 51 49 48 48 48 46 45 43 40 38 36 36 36 34 34 35 33 31 33
5 5 6 7 8 8 9 10 11 12 14 14 15 17 18 19 23 23 21 23 23 23 21 17 19 22 18 17 17 15 13 12 14 17 18 20 23 25 25 26 27 28 29 31 34 36 39 41 42 43 44 46 47 48 49 51 53 54 55 56 57 58 59 59 60 59 54 49 48 48 49 49 47 45 43 42 40 37 35 34 33 32 33 33 31 32
6 6 7 8 8 10 11 11 12 13 14 14 15 16 17 20 22 22 24 26 25 25 22 17 21 21 13 11 11 11 11 11 13 17 18 20 24 25 25 26 27 29 30 32 34 36 39 41 42 43 44 46 47 48 49 51 53 54 55 56 56 57 58 58 59 58 52 48 48 48 49 49 47 45 43 41 40 38 36 34 32 31 31 32 31 31
8 8 9 9 9 10 11 11 13 14 14 14 15 15 17 20 22 24 27 26 25 23 18 18 22 17 11 12 11 9 10 11 13 17 19 21 24 25 25 26 27 29 30 32 34 36 39 41 43 43 44 45 46 47 49 51 53 54 55 56 56 57 58 58 58 56 51 47 47 47 48 48 47 44 42 40 38 37 35 33 31 30 30 31 30 30
9 10 10 10 10 11 11 12 14 15 14 15 14 14 17 21 22 26 27 26 23 17 14 18 14 9 16 16 9 10 12 11 14 18 19 21 24 26 27 27 28 30 31 33 35 36 39 41 42 43 44 45 46 47 49 51 52 54 54 55 56 56 57 57 57 54 49 46 47 47 47 47 47 44 41 39 36 34 33 31 29 29 29 29 30 29
9 10 11 12 12 12 11 12 14 15 16 15 14 15 18 21 24 27 27 22 17 13 16 19 9 10 22 18 7 11 13 12 15 19 21 22 24 27 28 29 29 30 31 33 35 36 38 41 42 43 44 45 46 47 49 50 52 53 54 54 55 56 56 56 56 52 47 46 46 46 47 46 46 44 41 37 34 31 31 29 26 26 28 28 28 29
9 10 11 12 14 13 12 13 15 16 16 15 15 16 18 21 25 28 24 18 17 17 19 18 11 12 19 18 13 12 12 13 16 20 23 23 25 28 29 29 30 30 32 33 35 37 39 41 42 43 44 45 46 47 49 50 52 53 53 54 54 55 55 56 55 51 46 45 45 45 45 45 44 42 40 36 32 29 28 27 25 23 25 26 27 28
11 11 11 13 14 14 13 13 15 17 16 15 16 17 19 22 26 25 20 16 18 18 16 15 9 8 15 22 16 11 13 15 17 21 23 24 26 28 30 30 31 32 33 34 36 38 40 42 43 44 44 45 46 47 48 50 51 52 53 53 53 54 55 55 53 49 45 44 44 45 44 43 41 39 37 34 31 27 25 25 24 21 22 24 26 27
12 12 13 14 15 15 14 14 16 17 16 15 16 17 19 22 24 21 16 16 14 12 11 10 6 4 14 21 11 9 16 16 19 24 24 25 27 29 31 32 32 33 34 35 37 39 41 42 43 44 44 44 45 47 48 49 51 52 52 52 53 53 54 54 52 48 44 43 44 44 43 42 39 36 34 31 28 25 23 23 22 20 20 22 25 26
14 14 14 15 15 15 15 14 15 17 17 16 15 16 19 21 21 17 16 13 9 7 5 5 6 4 9 15 10 11 17 16 22 27 25 27 29 30 33 33 33 34 35 36 38 39 41 42 43 44 44 44 45 46 48 49 50 51 52 52 52 53 53 53 52 47 43 43 44 43 42 39 37 34 32 29 26 24 22 21 21 21 20 21 23 25
15 15 16 15 15 14 15 15 15 17 17 15 14 16 17 16 13 11 11 7 2 4 4 5 10 6 9 15 14 15 17 16 23 28 28 29 30 32 35 34 35 35 35 37 38 40 41 42 43 44 44 44 45 46 47 48 50 51 52 52 52 52 53 53 51 46 43 42 42 41 39 37 34 32 30 27 24 23 22 21 21 21 21 22 22 24
16 17 16 15 14 14 14 14 14 16 15 15 14 13 13 9 6 5 5 3 4 7 7 9 11 12 20 20 16 17 16 16 22 28 29 30 32 34 35 35 36 36 36 38 38 40 41 42 44 44 44 45 45 46 47 48 49 50 51 51 51 52 52 52 50 45 41 41 41 39 36 34 32 30 29 27 24 23 22 22 22 22 22 23 23 24
14 13 13 13 13 13 13 14 14 14 16 16 13 9 8 3 3 3 4 3 6 8 11 16 14 14 21 19 21 21 15 15 24 27 29 32 33 35 36 36 37 37 37 38 38 40 41 42 43 44 44 45 45 46 47 48 49 50 51 51 51 52 52 52 50 44 41 40 39 36 34 32 30 28 28 27 25 24 23 23 23 23 23 23 24 25
9 10 11 10 10 12 14 15 14 16 18 15 10 8 6 2 1 4 3 3 7 11 16 18 11 10 16 21 25 19 12 18 26 27 29 33 34 36 38 37 37 38 38 38 39 40 41 42 43 44 44 45 45 46 46 47 48 49 50 50 51 51 51 51 49 44 40 39 37 34 32 31 29 28 27 27 26 25 24 24 24 25 25 25 25 26
9 11 11 11 13 16 17 15 15 17 15 10 10 10 8 6 6 7 8 10 11 12 12 11 10 17 27 28 20 12 15 23 26 28 31 33 35 38 38 38 38 39 38 39 39 40 40 42 42 43 44 45 45 46 46 47 48 49 50 50 50 50 51 51 49 44 39 38 36 33 31 31 29 28 27 27 27 26 25 25 25 26 26 26 26 26
8 10 13 16 18 18 16 15 15 16 13 11 13 12 10 10 9 9 10 12 8 6 8 9 13 26 32 25 16 13 20 25 25 29 32 33 36 39 39 40 39 39 39 39 39 40 40 41 42 43 44 45 45 46 47 48 48 49 50 50 50 50 50 50 48 43 38 37 35 32 30 29 29 28 27 27 27 27 27 26 27 27 27 28 27 26
12 15 18 19 18 16 15 15 17 18 17 16 15 13 11 10 7 6 5 5 2 2 7 10 14 24 26 18 19 20 21 25 27 30 33 34 37 40 41 41 40 41 40 39 40 40 40 41 42 43 44 45 46 46 47 48 49 50 50 49 49 49 50 50 48 43 38 36 34 31 29 28 28 28 28 27 26 26 25 25 26 26 26 27 26 24
15 16 17 17 15 14 14 15 18 19 17 16 16 14 12 9 7 6 3 3 3 2 6 8 10 20 26 21 22 24 23 28 31 32 34 35 37 41 43 42 41 42 41 40 40 39 40 41 42 43 44 45 46 46 47 48 49 50 50 50 49 49 49 49 48 42 37 35 33 31 30 28 28 28 27 27 25 24 23 22 22 22 22 22 21 19
15 12 12 16 17 15 16 18 19 18 16 16 17 16 14 12 11 10 7 5 3 2 5 7 4 16 29 27 25 24 25 31 34 35 36 35 38 43 44 44 43 43 42 42 41 40 41 42 43 44 44 45 46 46 47 48 49 50 50 50 49 49 49 48 47 42 37 35 33 31 30 28 28 27 26 25 24 21 20 19 18 18 17 17 16 15
16 13 13 17 19 18 18 19 19 18 17 19 20 18 16 14 12 12 13 13 9 4 2 2 4 23 34 29 25 25 28 34 37 38 37 36 40 45 45 45 44 43 43 43 42 42 42 43 44 45 45 46 46 46 47 48 48 49 50 50 49 49 49 48 47 43 37 33 32 30 29 28 27 26 25 24 22 20 18 17 16 16 15 14 14 13
15 15 17 22 24 22 21 21 22 23 22 22 22 19 18 15 13 10 9 14 14 10 8 2 6 30 40 30 25 27 31 37 39 37 37 38 42 45 45 44 44 44 44 44 43 43 43 44 45 46 46 46 47 47 48 48 48 48 49 50 49 49 48 48 46 43 37 33 32 30 28 28 26 25 24 23 21 19 17 16 15 14 13 13 12 12
16 16 21 25 24 21 21 24 25 24 21 19 19 20 19 18 18 13 7 11 12 13 16 7 7 31 43 31 25 31 36 39 38 35 38 41 44 45 44 44 44 44 45 45 45 44 45 46 46 47 47 46 47 48 48 48 47 47 48 49 49 49 48 47 46 44 39 34 31 29 28 27 26 24 23 22 20 18 16 15 13 12 12 11 11 11
15 15 20 25 25 23 22 23 21 17 14 15 17 22 22 20 21 19 18 19 15 15 18 6 6 32 42 33 31 37 39 38 36 36 40 43 45 45 44 45 44 44 45 45 45 46 46 47 47 48 48 47 47 48 48 48 47 47 47 48 48 48 48 47 46 44 40 35 32 29 28 27 25 24 23 21 19 17 15 13 12 11 10 10 10 10
15 15 18 20 19 18 16 14 13 13 13 17 23 26 26 24 21 21 25 23 17 21 21 8 11 37 44 37 38 39 37 36 37 39 42 44 45 46 45 45 44 44 46 45 46 47 47 48 48 48 48 48 48 47 48 48 47 47 47 47 47 48 47 47 46 44 41 36 32 30 28 27 25 24 22 21 19 16 14 13 11 10 9 8 8 8
19 20 21 17 10 8 11 13 17 20 21 25 30 29 30 28 22 22 23 19 16 22 22 16 25 47 49 39 37 36 34 37 40 42 43 43 45 46 46 46 45 44 45 46 46 47 47 48 49 49 49 49 48 48 47 47 47 47 47 46 46 46 47 47 46 44 42 38 33 30 28 27 25 24 22 20 19 16 14 13 10 9 8 8 7 7
22 24 24 22 20 20 24 26 27 30 30 31 32 32 33 32 28 25 23 23 26 27 29 33 42 49 47 41 38 36 36 39 42 43 44 45 45 46 46 46 46 45 45 46 46 46 46 47 48 49 50 50 49 48 47 47 47 47 47 46 46 46 46 46 45 44 42 39 34 31 29 27 25 24 22 20 19 17 15 13 11 9 8 7 7 8
24 27 25 25 27 28 29 30 30 30 33 35 35 36 35 33 30 29 28 32 34 26 28 41 43 40 42 43 38 36 39 42 44 44 45 48 49 49 49 50 49 47 46 46 45 45 45 46 47 49 50 50 50 49 48 47 46 46 47 46 45 45 45 45 45 43 42 40 36 32 29 27 25 24 22 21 19 17 15 13 11 9 8 8 9 9
24 28 28 27 29 28 29 30 30 30 33 35 33 33 33 31 32 33 33 37 37 31 31 40 40 38 42 41 35 36 41 44 46 47 48 51 53 53 54 54 53 50 47 46 46 45 45 45 46 48 50 50 49 49 48 47 46 46 47 47 46 45 44 43 44 43 42 40 37 33 30 28 26 24 23 21 20 18 16 14 12 11 10 10 10 11
23 26 28 28 30 32 30 29 30 30 30 31 32 34 34 31 29 31 30 29 31 35 36 36 37 39 37 34 36 41 44 46 48 49 51 53 55 56 56 55 53 50 48 48 48 48 47 46 46 47 49 49 49 48 48 47 47 46 46 47 46 45 44 43 42 42 41 40 38 34 30 28 26 25 23 22 20 19 17 15 14 13 12 12 12 13
23 26 28 28 33 35 30 27 27 25 26 34 35 30 24 23 25 25 24 23 25 31 33 33 37 39 33 32 40 46 47 50 51 51 54 56 56 55 53 52 51 51 51 50 50 50 50 48 49 49 50 50 49 48 48 47 47 46 46 46 46 45 44 42 41 41 40 39 38 35 31 29 27 25 24 23 21 20 18 17 16 15 15 14 14 14
24 26 28 28 31 33 30 27 25 25 32 34 25 18 20 25 25 22 21 22 25 30 34 34 37 37 34 37 45 49 50 52 52 53 55 55 53 50 49 51 52 52 53 52 52 52 51 50 51 51 51 51 50 48 47 47 47 46 46 45 45 45 44 43 41 40 39 39 38 36 32 29 27 26 25 24 22 21 20 19 18 18 17 16 15 15
25 26 27 25 25 29 29 26 28 31 27 16 12 21 27 24 19 19 22 26 29 32 34 34 33 33 35 43 50 53 53 53 53 52 52 51 50 49 50 53 54 55 54 53 53 53 52 52 52 52 52 51 50 49 48 47 46 46 46 45 44 44 44 43 41 39 38 38 37 36 33 30 28 27 25 24 24 23 22 21 21 20 19 18 17 16
24 24 26 22 20 26 30 30 29 20 7 6 18 25 21 18 21 26 28 29 31 31 28 27 27 30 38 48 53 54 54 53 52 49 46 46 49 51 53 54 55 56 55 54 54 53 53 53 53 53 53 51 50 49 48 47 46 46 45 44 44 44 43 43 41 39 38 37 36 36 34 31 29 27 26 25 25 24 23 23 23 22 21 20 18 17
22 22 23 21 21 27 30 25 15 5 7 18 22 16 14 22 29 32 32 29 27 25 22 22 27 35 45 51 51 51 52 51 50 47 45 46 49 52 54 55 55 56 56 55 55 54 53 53 52 52 52 51 50 50 48 46 45 46 46 44 43 43 43 43 41 39 38 37 36 35 34 31 29 28 27 26 26 25 24 25 25 24 23 22 20 19
20 19 19 20 20 21 20 12 5 13 25 23 9 8 20 28 32 36 37 31 24 20 21 24 32 42 48 49 48 48 50 52 51 49 47 48 51 53 55 56 57 57 58 57 57 56 55 54 54 53 52 51 51 50 48 46 45 47 47 44 43 43 42 42 41 40 38 37 35 34 33 32 30 28 28 28 27 26 25 26 27 27 25 24 22 21
18 18 19 18 15 14 16 16 19 26 25 10 3 15 29 32 35 38 38 34 25 17 20 28 40 47 48 47 48 49 51 55 56 53 50 51 53 54 56 57 58 59 59 59 59 59 58 58 57 56 53 52 51 49 47 46 46 48 47 44 43 44 43 42 41 40 39 37 35 34 33 31 30 28 28 28 28 27 27 27 28 28 28 26 24 23
17 19 18 15 13 15 16 17 17 15 8 4 12 26 32 35 37 37 38 34 19 13 24 39 46 48 48 48 50 51 53 57 60 58 56 56 58 59 60 60 61 61 62 62 62 62 62 61 60 59 56 54 51 48 46 46 46 47 47 45 43 45 45 42 41 42 41 38 36 34 32 31 30 29 28 29 28 28 28 28 30 30 30 28 26 25
19 20 19 16 17 18 16 12 7 6 8 13 22 30 34 37 39 37 32 24 17 23 39 47 46 46 48 49 51 53 54 57 61 63 62 62 64 64 64 65 65 65 65 65 65 65 65 64 63 62 60 57 54 50 47 46 46 46 47 44 43 45 44 42 43 44 41 39 37 35 32 31 30 29 28 28 29 29 30 30 30 32 32 31 29 28
21 20 19 18 18 19 18 15 12 15 18 20 25 33 36 38 38 31 20 21 34 45 46 45 45 46 48 50 52 53 53 55 59 64 64 65 66 66 66 67 68 68 68 67 67 66 66 65 65 64 62 59 56 53 50 49 48 48 47 43 43 44 41 42 46 46 42 40 40 37 34 32 30 29 29 28 29 30 31 31 31 32 33 33 31 30
20 18 17 17 17 18 18 18 19 22 20 18 26 35 38 37 35 26 22 34 48 49 44 44 46 47 48 52 54 55 56 56 59 63 64 65 67 67 67 66 66 66 66 65 65 65 64 64 64 63 62 60 56 53 50 49 50 50 48 45 43 41 38 42 49 47 43 42 41 39 36 33 30 29 29 29 29 30 31 32 33 33 34 34 34 32
17 16 14 14 15 16 16 17 20 19 15 19 30 36 35 35 34 31 35 43 45 44 45 47 47 49 53 55 56 58 60 60 61 63 64 64 65 65 64 63 62 61 61 61 61 61 62 62 62 62 62 61 57 53 49 48 49 51 50 48 45 38 35 43 50 48 44 43 42 41 39 35 32 30 29 29 29 30 31 33 34 34 34 35 35 34
15 13 12 14 15 15 14 13 12 13 18 27 35 36 35 35 35 37 42 44 42 44 48 49 51 54 55 56 59 62 62 62 62 62 62 61 61 60 59 58 58 58 59 60 61 61 62 63 62 62 62 61 59 56 52 48 48 49 51 52 47 37 34 42 49 48 45 44 43 42 41 38 35 31 29 30 29 29 31 32 34 35 35 35 36 36
13 11 13 15 15 13 13 12 12 17 24 30 33 35 35 34 34 38 43 45 47 48 49 52 56 57 56 58 61 61 60 60 58 58 59 60 59 58 57 56 57 58 60 61 62 62 64 64 64 63 62 61 61 58 54 52 50 49 50 51 46 38 35 39 45 47 46 44 44 44 42 40 37 33 30 30 30 29 30 31 34 35 36 36 36 36
11 11 13 15 14 14 17 19 21 24 26 28 31 34 35 35 37 40 43 46 49 50 52 55 58 59 60 60 58 58 58 57 55 56 58 58 58 57 57 57 59 60 61 61 61 61 62 63 64 63 61 60 59 57 56 56 55 53 52 52 50 43 38 38 41 45 45 44 45 45 44 42 39 35 31 30 30 29 29 31 33 35 36 37 37 36
10 10 13 16 18 20 21 22 25 27 28 29 31 34 37 40 42 43 45 49 51 53 55 56 57 59 59 56 54 55 56 54 55 56 57 57 57 57 57 59 60 60 61 61 60 60 60 61 62 62 62 60 58 57 57 57 56 56 54 53 55 52 44 40 41 41 41 43 45 45 45 44 41 37 33 31 30 29 29 30 32 33 35 37 38 37
9 12 16 19 21 25 26 26 29 32 33 33 36 39 42 44 45 47 49 52 55 57 59 58 58 57 55 52 50 50 51 53 54 55 56 57 58 59 60 61 62 62 62 61 60 60 60 59 59 60 61 60 60 59 58 56 55 54 53 52 54 55 51 45 44 42 39 40 44 45 44 43 42 39 35 33 31 29 28 29 30 32 33 35 37 38
14 17 21 23 25 27 30 32 35 38 38 37 40 44 47 49 51 53 54 55 57 59 59 59 57 54 51 49 48 48 51 53 54 56 58 58 59 60 62 62 62 63 62 61 60 59 59 59 59 58 59 60 60 60 60 59 56 53 52 51 52 54 54 51 47 46 42 39 41 44 44 42 42 40 37 34 32 30 28 28 29 30 32 33 36 38
20 23 26 30 33 33 34 37 42 45 45 45 46 48 51 53 56 58 59 60 61 60 59 60 58 53 50 49 49 51 53 55 56 58 59 60 60 62 62 63 63 63 62 62 60 59 59 59 58 57 57 58 59 60 61 61 59 56 54 52 52 52 53 52 49 48 47 42 38 40 42 41 40 40 38 35 33 31 29 28 28 28 30 32 34 37
25 29 32 35 38 39 40 43 45 48 52 54 54 54 55 56 58 62 64 64 63 62 60 60 59 57 54 52 52 53 55 57 59 60 62 62 63 64 64 65 64 63 62 62 61 60 60 60 58 58 57 57 57 59 60 61 60 59 56 54 52 52 52 50 48 47 48 46 40 37 39 40 39 38 37 35 33 32 29 28 28 27 28 30 32 34
29 32 36 38 40 42 44 46 47 50 54 57 57 58 59 60 62 65 66 65 65 63 59 57 56 56 56 55 55 55 58 60 62 63 65 65 65 65 66 65 64 63 63 62 62 61 61 60 60 60 59 58 57 58 59 59 59 59 58 56 54 53 52 50 47 46 46 45 40 36 37 39 38 36 35 34 33 32 30 28 27 26 26 28 30 32
Wind_Direction
275 255 267 271 259 259 267 275 279 290 301 307 311 314 316 315 317 321 317 315 311 304 305 299 291 294 303 308 303 299 298 291 292 300 306 311 319 328 330 330 332 333 336 335 334 335 333 332 333 333 335 336 336 337 336 335 334 333 332 332 332 331 332 332 332 331 330 328 326 325 325 325 325 324 321 314 308 307 305 302 297 294 292 288 282 278
270 258 273 272 265 274 286 292 298 307 310 312 314 314 317 316 316 319 317 318 314 304 307 302 292 301 309 304 298 296 292 286 291 303 312 314 321 328 330 331 334 335 337 336 336 335 332 332 333 334 335 335 336 337 336 335 333 332 331 331 332 332 333 333 332 331 330 327 326 326 326 326 326 325 322 317 311 307 305 303 300 295 293 290 286 282
278 272 275 278 288 303 307 306 309 313 312 312 315 314 314 317 318 319 319 320 314 305 306 301 295 309 312 296 291 287 281 283 294 309 316 318 323 328 331 334 335 336 337 336 336 333 331 332 333 333 334 335 336 336 335 334 332 331 331 331 332 333 333 333 332 331 329 327 327 327 327 326 326 325 321 317 312 308 306 304 302 297 293 291 288 285
280 277 278 286 302 312 311 311 313 313 312 310 313 312 314 321 322 320 318 317 311 305 304 299 301 312 313 302 297 282 286 298 303 314 321 321 325 329 333 336 335 336 337 336 335 332 330 331 332 333 334 334 336 336 334 333 331 330 330 331 332 333 333 333 332 331 329 328 329 328 327 325 324 323 320 316 312 308 305 305 303 298 294 291 289 285
273 272 280 287 299 311 313 314 317 316 311 308 310 310 315 322 321 317 316 314 309 306 304 307 311 311 315 324 311 287 304 315 310 320 326 324 327 331 335 337 336 336 337 335 334 332 330 331 332 333 333 334 335 335 333 332 330 329 330 331 333 333 333 333 332 331 330 329 329 328 326 323 322 321 319 316 312 308 304 303 302 297 293 290 289 285
276 272 279 283 289 304 314 316 320 322 314 310 311 311 318 322 320 318 317 313 310 308 306 317 320 305 315 325 306 292 315 321 316 325 329 327 329 333 336 338 337 337 336 334 333 332 330 331 332 332 333 334 335 334 333 331 330 329 330 332 333 333 333 333 332 331 330 330 329 328 325 322 320 319 318 316 313 309 304 301 299 294 290 289 288 286
282 275 280 284 284 295 311 316 321 324 319 315 313 314 318 320 320 320 316 310 306 300 304 311 296 282 311 327 312 300 317 321 322 329 330 329 331 334 337 338 338 338 337 334 333 332 332 331 332 332 333 334 334 333 332 331 329 329 330 332 332 333 333 333 332 331 331 330 330 327 324 321 319 318 318 317 314 310 304 300 297 291 287 287 286 286
289 282 282 288 286 287 302 313 318 323 323 317 312 313 317 319 320 319 314 305 297 298 303 302 281 268 297 319 320 301 309 320 324 330 331 330 333 335 338 339 340 340 338 335 334 334 333 332 333 333 334 334 333 332 331 330 329 330 331 331 332 333 333 332 332 332 331 330 328 326 323 320 319 318 318 317 315 310 304 299 297 290 285 285 285 284
289 285 284 290 288 282 290 305 314 321 324 316 310 313 315 318 320 317 310 303 301 305 304 297 283 250 282 308 316 299 306 320 325 330 331 332 335 337 338 341 341 341 339 336 336 335 335 334 334 335 334 334 333 332 331 329 329 330 330 331 332 333 333 332 333 333 331 329 327 325 323 321 320 319 318 318 315 310 303 299 297 291 283 283 283 283
285 288 286 288 289 278 280 296 308 317 321 315 310 312 315 319 320 314 304 303 304 300 294 288 278 250 292 306 309 300 310 317 324 330 333 334 337 338 339 342 342 341 340 338 337 337 336 336 336 335 335 334 333 332 330 329 330 330 330 331 333 333 332 333 334 333 330 328 327 325 323 322 321 320 319 318 315 309 304 300 297 292 284 281 281 281
280 288 283 284 287 277 275 286 301 314 319 315 311 311 317 321 318 306 295 301 308 294 278 275 287 279 299 308 309 306 311 316 324 330 334 336 338 339 340 342 342 341 340 339 338 337 337 336 336 336 335 334 333 331 330 330 330 330 330 331 332 332 332 334 335 332 330 328 327 325 324 323 322 322 321 319 314 309 305 301 297 292 285 280 278 279
277 283 281 281 282 277 275 280 296 312 317 316 315 317 322 322 314 298 286 286 279 284 279 285 297 274 260 295 315 315 311 316 325 330 333 336 338 339 340 342 341 341 339 338 338 337 337 337 336 336 336 335 334 332 331 331 331 330 331 332 332 332 333 335 335 331 328 327 326 326 324 323 324 323 322 319 314 308 304 300 296 291 287 282 279 278
282 282 278 276 278 280 277 278 296 312 318 319 316 322 331 329 332 314 272 252 239 252 273 292 299 277 267 286 320 321 309 313 325 330 333 335 337 338 340 341 340 339 338 337 337 337 337 337 337 337 337 336 334 333 332 331 331 331 331 331 331 333 334 335 334 330 326 326 326 326 325 324 325 323 321 318 313 308 303 300 297 292 288 284 281 279
291 285 278 273 278 283 280 284 298 311 321 319 310 325 341 355 16 320 268 289 275 257 274 289 294 280 275 300 327 321 310 318 327 332 333 334 336 337 339 340 339 338 336 335 336 336 337 336 337 338 337 337 335 334 333 332 332 332 331 331 332 333 335 335 333 328 325 326 327 327 325 324 325 323 320 316 312 309 304 300 296 292 287 284 282 280
288 286 284 277 279 291 290 287 295 310 320 314 300 313 323 322 284 271 254 275 290 293 290 285 281 266 280 315 326 317 316 328 330 334 334 334 334 336 339 339 337 336 335 334 334 335 336 336 337 338 338 337 337 336 334 333 333 332 331 331 332 334 334 334 332 328 325 326 327 326 324 324 324 322 319 315 312 309 305 300 296 293 289 286 284 282
282 281 287 285 288 297 294 285 291 309 317 308 297 299 298 298 269 250 262 273 284 307 298 265 252 275 295 315 323 315 326 332 334 336 335 334 333 335 338 338 336 335 334 333 333 334 335 335 336 338 338 338 337 337 336 335 334 333 332 332 333 334 333 333 332 327 325 326 326 325 324 323 323 321 318 314 311 309 306 302 298 294 291 288 286 283
279 280 290 295 296 296 291 282 286 301 305 296 296 293 290 300 281 250 270 283 283 304 289 252 265 292 306 320 331 330 331 334 335 335 335 333 333 334 336 337 335 334 333 332 331 332 333 334 336 337 338 338 337 337 337 337 336 334 333 333 333 333 333 333 332 328 325 325 325 323 323 322 321 320 317 314 311 310 308 305 301 296 292 289 286 284
282 287 294 296 295 290 284 281 284 293 296 291 289 289 293 300 280 248 270 306 323 284 275 255 266 292 301 313 334 337 334 334 334 335 335 332 331 334 335 336 334 332 332 331 330 330 330 333 335 337 337 337 337 338 338 338 337 336 335 333 333 333 332 333 332 328 324 324 323 321 321 320 319 319 317 315 313 312 310 307 304 299 294 290 287 284
291 295 298 297 294 290 283 281 286 290 292 289 286 285 288 285 266 253 247 303 320 284 287 273 261 284 289 301 332 339 333 334 335 336 334 329 329 334 335 335 334 332 331 330 328 327 328 331 334 335 336 336 337 337 337 338 338 337 336 334 333 332 332 332 332 328 324 322 321 319 320 320 319 319 318 316 315 314 313 311 307 304 299 294 290 287
296 293 293 296 297 292 286 286 288 289 290 290 286 281 279 275 266 261 238 234 256 224 290 300 272 290 300 312 330 335 333 334 336 336 331 326 328 333 334 334 333 331 330 329 328 326 325 328 331 333 334 335 336 336 336 337 338 338 336 334 333 332 332 332 331 329 323 320 319 317 318 318 319 319 317 316 315 315 315 314 312 309 305 300 296 292
295 282 281 293 295 291 292 294 290 287 288 287 284 278 275 271 267 271 263 250 242 206 250 327 278 291 308 324 327 328 335 335 336 335 327 324 328 332 334 334 333 331 330 329 328 326 325 326 328 330 332 333 334 335 335 335 337 338 337 335 333 332 331 331 331 329 323 319 317 315 315 316 317 318 317 314 314 314 314 315 314 312 309 305 300 295
293 282 280 287 292 293 296 296 288 286 287 284 282 280 276 270 261 267 273 256 240 222 236 229 271 291 308 325 323 327 336 335 336 333 325 325 329 331 334 334 333 331 330 330 328 327 325 325 326 328 330 331 332 333 333 333 335 337 337 336 334 333 331 331 331 329 324 319 316 313 313 314 315 316 315 312 311 312 312 312 313 311 309 306 301 295
293 285 282 286 293 297 295 293 289 287 284 277 275 279 278 270 260 252 253 265 254 235 248 246 256 289 307 322 321 327 335 334 334 331 326 328 330 332 334 334 333 332 330 330 329 328 327 326 326 327 328 329 330 331 331 331 333 335 336 336 335 333 332 330 330 329 325 319 315 312 311 312 313 313 312 310 308 308 309 309 310 309 307 304 299 296
294 287 286 291 297 298 294 293 292 287 279 272 278 285 282 273 269 265 261 268 271 251 250 232 242 285 305 321 320 327 334 332 332 331 329 330 331 333 334 334 334 332 330 331 329 329 328 327 327 327 327 328 329 329 329 328 330 332 333 335 334 334 332 330 329 329 326 320 314 311 309 309 310 310 309 307 305 305 305 306 307 304 302 299 295 292
292 285 286 294 306 309 303 299 297 292 286 285 290 292 288 281 274 271 266 264 268 264 255 209 242 284 304 319 321 329 333 329 330 332 332 332 332 333 333 333 334 331 330 331 329 329 329 328 329 329 328 329 329 328 327 327 328 329 331 333 333 334 332 330 329 328 326 322 315 310 307 307 308 307 307 305 302 301 301 300 300 298 296 293 288 286
287 281 282 284 285 290 292 296 299 298 293 291 292 292 290 286 276 273 269 255 254 266 255 227 258 287 306 321 325 333 334 329 332 333 332 333 331 331 331 332 333 330 330 330 329 328 328 327 329 329 329 330 329 327 326 325 326 327 328 330 331 332 332 330 328 328 327 323 316 310 306 305 306 304 304 302 298 296 296 294 293 292 289 285 280 278
285 282 285 281 272 276 288 295 297 297 294 292 294 294 291 289 282 272 260 251 261 267 263 266 275 289 308 324 331 335 335 334 334 332 330 330 328 327 328 329 330 329 328 328 327 327 326 325 327 329 329 328 328 327 326 325 325 325 325 327 328 330 331 330 328 327 327 324 317 310 304 302 303 302 300 299 294 291 290 288 285 281 277 271 268 269
285 285 289 286 283 288 294 297 296 294 293 294 296 296 293 291 286 272 262 270 277 267 269 288 292 291 307 326 334 335 335 335 333 330 327 326 325 324 325 326 328 326 324 324 325 324 324 323 325 327 327 327 326 325 325 324 324 324 325 325 326 327 328 329 328 326 326 325 319 311 303 300 299 299 297 295 291 286 283 279 275 267 260 256 260 266
287 288 293 292 291 295 299 300 299 296 295 296 297 298 296 294 288 282 283 289 284 267 275 300 302 296 310 329 335 334 334 333 330 327 324 323 323 324 325 327 326 324 321 320 320 321 320 320 322 325 325 325 324 323 322 322 322 322 324 324 323 324 326 327 327 326 325 325 320 312 303 298 297 296 294 291 287 281 276 270 262 254 249 251 258 265
288 289 296 296 296 301 304 305 304 301 301 302 304 307 304 300 296 295 302 303 287 278 292 307 305 303 318 334 334 330 330 328 326 324 322 323 324 326 327 327 324 322 320 318 317 317 316 317 319 321 322 321 321 320 319 319 319 320 321 322 322 322 322 324 325 325 325 324 321 314 304 296 294 293 291 288 283 277 270 261 252 247 246 250 257 263
290 291 297 298 299 304 309 311 309 310 311 310 311 316 316 315 317 313 315 315 298 297 312 314 304 308 326 337 329 326 326 325 325 324 323 325 328 330 329 326 324 324 323 321 319 317 316 315 316 317 318 318 317 316 316 316 316 317 318 319 320 320 320 321 322 324 324 323 321 316 306 296 291 289 288 285 280 273 265 254 247 244 246 250 256 262
295 294 298 301 301 303 311 315 314 315 313 309 313 327 325 323 326 325 328 329 319 316 321 315 308 317 331 330 324 323 324 325 325 324 327 330 333 332 329 327 327 327 326 325 322 320 318 315 314 313 313 313 312 312 312 312 313 314 315 316 317 318 318 319 319 321 322 322 320 317 308 297 290 287 285 282 278 272 261 251 245 244 247 251 255 260
299 297 299 303 298 300 309 315 316 317 314 310 326 330 326 330 337 337 335 332 327 324 322 319 320 326 327 324 322 323 324 325 325 327 333 335 333 330 327 328 329 328 327 326 323 321 319 316 314 312 310 308 308 308 308 309 310 310 311 312 314 315 316 316 316 318 320 320 319 316 311 300 290 285 282 280 277 270 260 251 246 245 248 251 254 258
302 300 301 299 292 297 309 316 319 318 306 314 325 327 336 349 346 337 330 328 330 330 325 324 324 322 321 322 324 324 324 325 326 331 336 336 332 329 328 328 329 328 328 327 325 323 321 318 316 314 310 307 305 304 304 306 307 307 306 308 310 311 313 314 313 314 316 317 317 315 312 303 292 284 279 277 274 270 261 251 246 246 247 251 254 256
307 304 300 296 292 298 311 325 333 303 292 316 316 320 341 341 336 331 324 325 335 331 321 321 320 318 320 323 324 324 324 323 325 330 334 333 330 330 329 328 328 328 327 327 326 324 322 320 318 316 313 310 306 304 303 304 305 303 303 304 306 307 309 311 311 310 311 313 314 313 311 306 295 284 278 275 272 268 262 252 247 246 247 250 253 254
315 311 305 301 298 300 309 323 307 293 313 321 309 316 333 331 332 330 322 324 333 319 304 311 316 318 322 324 324 323 322 321 321 326 331 330 329 329 328 327 327 327 326 325 324 323 322 320 319 318 316 313 310 307 304 303 302 300 300 301 302 303 304 307 308 307 306 308 310 310 310 307 298 286 277 273 270 267 262 255 249 246 247 249 251 253
323 318 311 305 300 297 295 293 295 306 321 337 323 331 334 331 334 332 324 326 329 301 289 307 316 320 323 323 323 323 322 320 320 323 329 329 328 328 326 325 325 323 323 322 321 320 320 318 317 317 315 312 310 308 305 302 299 297 298 299 300 301 301 303 305 304 303 304 305 307 307 305 300 290 278 271 269 266 262 256 251 247 247 248 249 252
325 318 311 301 293 293 293 300 308 314 328 345 328 333 335 332 333 330 322 324 324 291 302 317 321 323 324 323 323 325 324 322 321 325 330 329 327 326 324 323 322 321 320 320 319 318 317 316 315 314 312 311 309 307 304 299 296 296 297 298 299 300 299 301 303 301 300 301 301 302 304 302 300 293 282 272 268 264 261 257 252 248 247 247 248 250
323 316 309 298 292 291 290 294 296 278 298 325 333 335 334 330 330 328 321 318 317 315 321 324 324 324 324 324 325 325 326 325 324 327 329 327 325 324 322 321 320 319 318 318 318 317 316 315 314 313 313 311 309 306 302 297 294 294 295 298 299 297 299 303 301 298 298 298 297 297 299 299 297 294 285 275 267 263 259 257 253 249 247 247 247 248
321 317 310 302 299 296 288 277 271 285 306 326 334 333 330 327 329 330 322 314 320 324 326 325 323 323 324 324 324 325 326 325 324 325 326 323 321 321 319 319 319 318 318 318 317 316 315 314 313 312 312 312 310 308 305 302 298 294 294 297 296 295 301 304 298 294 296 297 295 294 295 294 293 292 288 278 268 262 259 256 254 251 248 246 246 247
322 319 312 307 306 303 289 276 283 300 313 328 331 328 326 326 329 330 319 316 320 323 324 322 322 323 324 323 324 324 324 323 321 321 322 320 319 319 318 319 319 320 320 320 319 318 317 315 314 312 311 312 312 312 310 307 304 299 296 295 292 295 303 302 295 293 294 295 293 292 291 291 290 288 286 281 272 263 259 257 254 252 249 247 245 245
323 318 313 314 314 308 295 287 294 308 324 329 323 322 325 329 328 322 316 316 319 320 321 322 323 324 324 323 323 322 321 320 320 320 320 319 319 320 321 322 323 324 325 325 325 324 322 321 319 316 313 313 314 315 316 313 310 306 302 296 292 296 302 297 293 293 293 292 293 292 289 287 287 285 283 281 276 267 260 257 254 252 250 248 246 245
319 313 313 317 314 309 301 296 302 318 326 324 320 322 328 330 324 317 316 319 321 322 322 323 324 324 323 322 321 320 320 320 320 319 319 319 320 322 325 327 330 331 331 331 331 330 328 327 326 323 321 318 317 319 321 320 316 314 311 306 300 296 296 295 293 292 292 291 292 292 289 285 283 283 281 279 277 271 263 258 254 253 251 249 247 246
319 315 317 319 318 313 302 297 307 316 318 320 322 324 326 325 321 319 319 322 324 324 323 322 323 324 322 321 320 320 320 320 320 320 321 322 324 327 330 333 334 334 334 334 334 333 332 330 329 328 327 325 323 323 323 322 320 318 319 318 310 295 287 292 294 291 290 292 292 291 290 286 282 280 279 277 276 273 267 261 256 253 251 249 248 247
324 319 317 319 318 310 302 306 315 317 318 324 326 325 325 324 322 322 322 323 323 324 323 323 323 323 323 321 320 320 321 322 322 323 324 325 328 331 332 333 334 333 332 332 332 332 331 329 329 328 329 328 327 325 324 322 321 320 320 321 318 304 287 285 290 290 289 291 291 290 289 287 283 279 277 275 274 272 269 264 259 255 252 250 248 247
319 315 316 318 316 309 307 315 320 318 320 326 326 325 326 326 325 324 324 323 323 324 324 324 323 323 323 322 321 321 322 323 323 324 325 327 329 331 332 331 331 330 329 329 329 329 328 327 326 326 327 328 327 325 324 323 322 321 320 318 319 314 300 285 283 287 288 289 289 289 288 287 285 280 275 273 273 272 269 266 262 257 253 250 249 247
314 315 317 320 321 320 321 325 324 322 325 330 328 326 326 326 325 326 325 324 325 325 325 324 323 323 323 322 321 321 322 323 324 325 326 327 328 329 329 328 327 326 325 325 325 325 324 324 323 322 322 324 324 323 322 322 321 322 321 318 317 317 313 299 285 281 284 287 286 286 286 287 286 282 276 272 272 271 269 266 264 260 256 252 249 247
334 331 328 328 329 328 328 328 326 324 327 332 331 328 327 327 326 327 327 327 327 326 325 325 324 323 322 322 322 322 323 324 325 325 325 325 325 325 325 324 323 322 322 322 322 322 321 320 320 318 317 318 318 318 318 319 319 320 321 319 315 315 316 312 299 285 280 281 284 284 284 285 286 283 278 273 271 271 270 268 265 262 259 255 250 247
340 339 339 336 334 332 331 330 329 326 326 332 335 332 331 330 329 329 330 329 328 327 326 325 324 323 322 322 323 324 324 324 324 323 322 322 322 322 322 321 321 320 320 320 320 320 319 318 318 316 315 315 315 314 314 316 317 318 318 317 315 312 313 316 312 299 285 277 278 281 282 282 284 284 281 276 273 272 271 269 267 264 261 258 253 249
341 342 344 341 338 338 338 338 336 332 330 334 336 334 333 332 330 330 330 329 328 328 327 325 323 322 321 321 321 321 321 322 322 322 321 320 320 321 320 320 320 320 320 320 321 320 319 318 316 316 315 315 315 314 313 314 315 316 316 315 314 313 311 312 315 310 294 279 274 277 278 278 281 283 283 278 273 272 272 271 269 267 263 260 257 252
345 347 348 345 341 340 339 339 337 334 332 333 334 332 332 331 330 330 329 328 327 327 325 323 323 322 320 319 319 319 320 320 321 320 320 319 319 320 320 319 320 320 321 321 322 321 319 318 317 316 315 316 315 313 312 312 312 312 313 313 313 313 312 310 312 311 299 283 273 272 274 274 276 281 283 279 273 271 271 272 271 269 265 261 259 255